TimeCST,TemperatureF,Dew PointF,Humidity,Sea Level PressureIn,VisibilityMPH,Wind Direction,Wind SpeedMPH,Gust SpeedMPH,PrecipitationIn,Events,Conditions,WindDirDegrees,DateUTC
12:15 AM,35.6,21.2,56,30.01,10.0,Calm,Calm,-,N/A,,Clear,0,2014-02-19 06:15:00
12:35 AM,33.8,21.2,60,30.02,10.0,Calm,Calm,-,N/A,,Clear,0,2014-02-19 06:35:00
12:55 AM,33.8,23.0,65,30.01,10.0,WNW,3.5,-,N/A,,Clear,290,2014-02-19 06:55:00
1:15 AM,32.0,21.2,64,29.99,10.0,North,6.9,-,N/A,,Clear,360,2014-02-19 07:15:00
1:35 AM,35.6,23.0,60,29.98,10.0,North,10.4,-,N/A,,Clear,10,2014-02-19 07:35:00
1:55 AM,35.6,21.2,56,29.99,10.0,NW,5.8,-,N/A,,Clear,320,2014-02-19 07:55:00
2:15 AM,37.4,19.4,48,30.00,10.0,Calm,Calm,-,N/A,,Clear,0,2014-02-19 08:15:00
2:35 AM,30.2,17.6,60,30.01,10.0,West,5.8,-,N/A,,Clear,260,2014-02-19 08:35:00
2:55 AM,30.2,19.4,64,30.01,10.0,West,3.5,-,N/A,,Clear,260,2014-02-19 08:55:00
3:15 AM,30.2,21.2,69,30.01,10.0,West,4.6,-,N/A,,Clear,270,2014-02-19 09:15:00
3:35 AM,30.2,21.2,69,30.00,10.0,Calm,Calm,-,N/A,,Clear,0,2014-02-19 09:35:00
3:55 AM,30.2,21.2,69,29.99,10.0,Calm,Calm,-,N/A,,Clear,0,2014-02-19 09:55:00
4:15 AM,30.2,21.2,69,29.99,10.0,Calm,Calm,-,N/A,,Partly Cloudy,0,2014-02-19 10:15:00
4:35 AM,30.2,21.2,69,29.98,10.0,Calm,Calm,-,N/A,,Partly Cloudy,0,2014-02-19 10:35:00
4:55 AM,30.2,21.2,69,29.96,10.0,Calm,Calm,-,N/A,,Clear,0,2014-02-19 10:55:00
5:15 AM,30.2,21.2,69,29.96,10.0,North,3.5,-,N/A,,Partly Cloudy,360,2014-02-19 11:15:00
5:35 AM,30.2,23.0,75,29.96,10.0,Calm,Calm,-,N/A,,Scattered Clouds,0,2014-02-19 11:35:00
5:55 AM,30.2,24.8,80,29.95,10.0,Calm,Calm,-,N/A,,Mostly Cloudy,0,2014-02-19 11:55:00
6:15 AM,30.2,23.0,75,29.95,10.0,Calm,Calm,-,N/A,,Mostly Cloudy,0,2014-02-19 12:15:00
6:35 AM,30.2,23.0,75,29.94,10.0,Calm,Calm,-,N/A,,Scattered Clouds,0,2014-02-19 12:35:00
6:55 AM,30.2,24.8,80,29.95,10.0,North,4.6,-,N/A,,Mostly Cloudy,10,2014-02-19 12:55:00
7:15 AM,30.2,24.8,80,29.95,10.0,Calm,Calm,-,N/A,,Scattered Clouds,0,2014-02-19 13:15:00
7:35 AM,33.8,24.8,70,29.94,10.0,ESE,3.5,-,N/A,,Mostly Cloudy,120,2014-02-19 13:35:00
7:55 AM,33.8,24.8,70,29.94,10.0,SSE,5.8,-,N/A,,Mostly Cloudy,150,2014-02-19 13:55:00
8:15 AM,35.6,26.6,70,29.94,10.0,SSE,4.6,-,N/A,,Scattered Clouds,150,2014-02-19 14:15:00
8:35 AM,37.4,26.6,65,29.93,10.0,SE,5.8,-,N/A,,Scattered Clouds,140,2014-02-19 14:35:00
8:55 AM,37.4,28.4,70,29.94,10.0,SSE,6.9,-,N/A,,Scattered Clouds,150,2014-02-19 14:55:00
9:15 AM,39.2,28.4,65,29.93,10.0,SE,10.4,-,N/A,,Mostly Cloudy,140,2014-02-19 15:15:00
9:35 AM,41.0,28.4,61,29.92,10.0,SE,9.2,-,N/A,,Mostly Cloudy,140,2014-02-19 15:35:00
9:55 AM,42.8,28.4,57,29.92,10.0,SSE,10.4,-,N/A,,Scattered Clouds,150,2014-02-19 15:55:00
10:15 AM,44.6,28.4,53,29.90,10.0,SSE,12.7,-,N/A,,Mostly Cloudy,150,2014-02-19 16:15:00
10:35 AM,46.4,28.4,50,29.90,10.0,SE,18.4,-,N/A,,Mostly Cloudy,140,2014-02-19 16:35:00
10:55 AM,48.2,28.4,46,29.89,10.0,SSE,19.6,24.2,N/A,,Mostly Cloudy,150,2014-02-19 16:55:00
11:15 AM,48.2,28.4,46,29.88,10.0,SSE,17.3,-,N/A,,Scattered Clouds,150,2014-02-19 17:15:00
11:35 AM,50.0,28.4,43,29.87,10.0,SSE,12.7,-,N/A,,Mostly Cloudy,160,2014-02-19 17:35:00
11:55 AM,50.0,28.4,43,29.86,10.0,SSE,15.0,-,N/A,,Mostly Cloudy,160,2014-02-19 17:55:00
12:15 PM,51.8,28.4,41,29.85,10.0,SSE,11.5,-,N/A,,Mostly Cloudy,160,2014-02-19 18:15:00
12:35 PM,53.6,28.4,38,29.84,10.0,SSE,11.5,-,N/A,,Overcast,160,2014-02-19 18:35:00
12:55 PM,51.8,28.4,41,29.82,10.0,SSE,11.5,-,N/A,,Overcast,160,2014-02-19 18:55:00
1:15 PM,53.6,28.4,38,29.79,10.0,SSE,9.2,-,N/A,,Overcast,150,2014-02-19 19:15:00
1:35 PM,53.6,28.4,38,29.76,10.0,SSE,13.8,-,N/A,,Overcast,160,2014-02-19 19:35:00
1:55 PM,53.6,28.4,38,29.74,10.0,ESE,10.4,-,N/A,,Scattered Clouds,120,2014-02-19 19:55:00
2:15 PM,53.6,28.4,38,29.72,10.0,SE,11.5,-,N/A,,Scattered Clouds,140,2014-02-19 20:15:00
2:35 PM,55.4,28.4,36,29.70,10.0,SE,10.4,-,N/A,,Partly Cloudy,140,2014-02-19 20:35:00
2:55 PM,55.4,26.6,33,29.68,10.0,ESE,16.1,23.0,N/A,,Clear,120,2014-02-19 20:55:00
3:15 PM,55.4,26.6,33,29.65,10.0,SE,17.3,-,N/A,,Partly Cloudy,140,2014-02-19 21:15:00
3:35 PM,55.4,26.6,33,29.65,10.0,SE,15.0,-,N/A,,Scattered Clouds,130,2014-02-19 21:35:00
3:55 PM,55.4,28.4,36,29.63,10.0,SE,18.4,23.0,N/A,,Mostly Cloudy,140,2014-02-19 21:55:00
4:15 PM,55.4,28.4,36,29.62,10.0,SSE,18.4,-,N/A,,Overcast,150,2014-02-19 22:15:00
4:35 PM,55.4,28.4,36,29.61,10.0,SSE,19.6,28.8,N/A,,Mostly Cloudy,150,2014-02-19 22:35:00
4:55 PM,55.4,28.4,36,29.61,10.0,SE,18.4,-,N/A,,Mostly Cloudy,140,2014-02-19 22:55:00
5:15 PM,53.6,28.4,38,29.60,10.0,SE,17.3,-,N/A,,Mostly Cloudy,140,2014-02-19 23:15:00
5:35 PM,53.6,28.4,38,29.60,10.0,SE,13.8,-,N/A,,Scattered Clouds,140,2014-02-19 23:35:00
5:55 PM,51.8,28.4,41,29.60,10.0,SSE,13.8,-,N/A,,Scattered Clouds,150,2014-02-19 23:55:00
6:15 PM,51.8,28.4,41,29.60,10.0,SSE,10.4,-,N/A,,Scattered Clouds,150,2014-02-20 00:15:00
6:35 PM,48.2,28.4,46,29.59,10.0,SSE,9.2,-,N/A,,Mostly Cloudy,150,2014-02-20 00:35:00
6:55 PM,44.6,26.6,49,29.60,10.0,SE,8.1,-,N/A,,Mostly Cloudy,140,2014-02-20 00:55:00
7:15 PM,42.8,26.6,53,29.60,10.0,SE,6.9,-,N/A,,Mostly Cloudy,140,2014-02-20 01:15:00
7:35 PM,44.6,26.6,49,29.59,10.0,SE,6.9,-,N/A,,Scattered Clouds,130,2014-02-20 01:35:00
7:55 PM,44.6,26.6,49,29.57,10.0,ESE,6.9,-,N/A,,Mostly Cloudy,110,2014-02-20 01:55:00
8:15 PM,42.8,26.6,53,29.56,10.0,ESE,6.9,-,N/A,,Mostly Cloudy,120,2014-02-20 02:15:00
8:35 PM,39.2,26.6,61,29.53,10.0,ESE,10.4,-,N/A,,Mostly Cloudy,120,2014-02-20 02:35:00
8:55 PM,44.6,26.6,49,29.52,10.0,ESE,10.4,-,N/A,,Mostly Cloudy,120,2014-02-20 02:55:00
9:15 PM,42.8,26.6,53,29.52,10.0,ESE,8.1,-,N/A,,Mostly Cloudy,110,2014-02-20 03:15:00
9:35 PM,42.8,26.6,53,29.52,10.0,East,8.1,-,N/A,,Mostly Cloudy,100,2014-02-20 03:35:00
9:55 PM,39.2,26.6,61,29.52,10.0,East,5.8,-,N/A,,Mostly Cloudy,90,2014-02-20 03:55:00
10:15 PM,39.2,24.8,56,29.51,10.0,East,6.9,-,N/A,,Mostly Cloudy,90,2014-02-20 04:15:00
10:35 PM,41.0,26.6,57,29.49,10.0,East,5.8,-,N/A,,Mostly Cloudy,90,2014-02-20 04:35:00
10:55 PM,39.2,26.6,61,29.48,10.0,ESE,6.9,-,N/A,,Mostly Cloudy,110,2014-02-20 04:55:00
11:15 PM,39.2,26.6,61,29.46,10.0,ESE,8.1,-,N/A,,Mostly Cloudy,110,2014-02-20 05:15:00
11:35 PM,39.2,26.6,61,29.44,10.0,ESE,8.1,-,N/A,,Mostly Cloudy,110,2014-02-20 05:35:00
11:55 PM,39.2,26.6,61,29.42,10.0,SE,11.5,-,N/A,,Scattered Clouds,130,2014-02-20 05:55:00